• In Uzbekistan
  • List of Countries
  • For 7 days
  • Water Temperature
  • Satellite Maps
  • Weather Map
  • Weather Widgets
  • user-avatar
    Login

    Hourly Weather Mochudi

    Today, 18 April, Thursday

    Time Temperature Precipitation Wind Pressure Humidity
    00:00 +24°C° 0 mm 3 mps 682 mmHg 43%
    01:00 +22°C° 0 mm 3 mps 682 mmHg 46%
    02:00 +22°C° 0 mm 4 mps 682 mmHg 57%
    03:00 +22°C° 0 mm 4 mps 682 mmHg 61%
    04:00 +21°C° 0 mm 4 mps 682 mmHg 64%
    05:00 +21°C° 0 mm 3 mps 682 mmHg 68%
    06:00 +21°C° 0 mm 4 mps 682 mmHg 68%
    07:00 +22°C° 0 mm 5 mps 683 mmHg 67%
    08:00 +22°C° 0 mm 5 mps 683 mmHg 67%
    09:00 +25°C° 0 mm 5 mps 683 mmHg 59%
    10:00 +27°C° 0 mm 5 mps 684 mmHg 51%
    11:00 +29°C° 0 mm 5 mps 685 mmHg 43%
    12:00 +32°C° 0 mm 4 mps 684 mmHg 37%
    13:00 +33°C° 0 mm 4 mps 684 mmHg 32%
    14:00 +35°C° 0 mm 4 mps 683 mmHg 27%
    15:00 +34°C° 0 mm 3 mps 683 mmHg 27%
    16:00 +34°C° 0 mm 2 mps 683 mmHg 27%
    17:00 +32°C° 0 mm 2 mps 682 mmHg 27%
    18:00 +31°C° 0 mm 2 mps 682 mmHg 29%
    19:00 +30°C° 0 mm 3 mps 683 mmHg 31%
    20:00 +29°C° 0 mm 3 mps 683 mmHg 33%
    21:00 +29°C° 0 mm 4 mps 683 mmHg 35%
    22:00 +28°C° 0 mm 4 mps 683 mmHg 36%
    23:00 +27°C° 0 mm 5 mps 683 mmHg 38%

    Tomorrow, 19 April, Friday

    Time Temperature Precipitation Wind Pressure Humidity
    00:00 +27°C° 0 mm 5 mps 683 mmHg 40%
    01:00 +26°C° 0 mm 4 mps 683 mmHg 41%
    02:00 +25°C° 0 mm 4 mps 683 mmHg 43%
    03:00 +23°C° 0 mm 4 mps 683 mmHg 45%
    04:00 +22°C° 0 mm 3 mps 683 mmHg 48%
    05:00 +22°C° 0 mm 3 mps 683 mmHg 51%
    06:00 +22°C° 0 mm 4 mps 684 mmHg 51%
    07:00 +23°C° 0 mm 4 mps 684 mmHg 51%
    08:00 +23°C° 0 mm 5 mps 685 mmHg 50%
    09:00 +26°C° 0 mm 5 mps 685 mmHg 45%
    10:00 +28°C° 0 mm 4 mps 686 mmHg 39%
    11:00 +30°C° 0 mm 4 mps 686 mmHg 34%
    12:00 +32°C° 0 mm 4 mps 685 mmHg 31%
    13:00 +34°C° 0 mm 3 mps 685 mmHg 28%
    14:00 +35°C° 0 mm 3 mps 684 mmHg 25%
    15:00 +34°C° 0 mm 3 mps 684 mmHg 25%
    16:00 +34°C° 0 mm 2 mps 683 mmHg 25%
    17:00 +34°C° 0 mm 2 mps 683 mmHg 26%
    18:00 +31°C° 0 mm 2 mps 683 mmHg 29%
    19:00 +30°C° 0 mm 2 mps 683 mmHg 32%
    20:00 +28°C° 0 mm 2 mps 683 mmHg 35%
    21:00 +27°C° 0 mm 2 mps 684 mmHg 37%
    22:00 +27°C° 0 mm 3 mps 684 mmHg 38%
    23:00 +26°C° 0 mm 3 mps 684 mmHg 39%

    Day after tomorrow, 20 April, Saturday

    Time Temperature Precipitation Wind Pressure Humidity
    00:00 +25°C° 0 mm 3 mps 684 mmHg 40%
    01:00 +25°C° 0 mm 3 mps 684 mmHg 42%
    02:00 +24°C° 0 mm 3 mps 684 mmHg 43%
    03:00 +24°C° 0 mm 3 mps 683 mmHg 47%
    04:00 +23°C° 0 mm 2 mps 683 mmHg 51%
    05:00 +22°C° 0 mm 1 mps 683 mmHg 56%
    06:00 +23°C° 0 mm 2 mps 683 mmHg 55%
    07:00 +22°C° 0 mm 3 mps 684 mmHg 55%
    08:00 +24°C° 0 mm 3 mps 684 mmHg 54%
    09:00 +26°C° 0 mm 4 mps 684 mmHg 46%
    10:00 +28°C° 0 mm 4 mps 685 mmHg 38%
    11:00 +32°C° 0 mm 4 mps 685 mmHg 31%
    12:00 +33°C° 0 mm 4 mps 684 mmHg 27%
    13:00 +34°C° 0 mm 4 mps 684 mmHg 24%
    14:00 +35°C° 0 mm 4 mps 683 mmHg 21%
    15:00 +35°C° 0 mm 3 mps 683 mmHg 21%
    16:00 +34°C° 0 mm 3 mps 682 mmHg 20%
    17:00 +34°C° 0 mm 2 mps 682 mmHg 19%
    18:00 +31°C° 0 mm 2 mps 682 mmHg 22%
    19:00 +29°C° 0 mm 2 mps 682 mmHg 24%
    20:00 +27°C° 0 mm 2 mps 682 mmHg 27%
    21:00 +27°C° 0 mm 2 mps 682 mmHg 29%
    22:00 +26°C° 0 mm 2 mps 682 mmHg 32%
    23:00 +25°C° 0 mm 2 mps 682 mmHg 35%

    21 April, Sunday

    Time Temperature Precipitation Wind Pressure Humidity
    00:00 +24°C° 0 mm 2 mps 682 mmHg 37%
    01:00 +24°C° 0 mm 2 mps 682 mmHg 40%
    02:00 +23°C° 0 mm 2 mps 681 mmHg 43%
    03:00 +21°C° 0 mm 2 mps 681 mmHg 45%
    04:00 +21°C° 0 mm 2 mps 681 mmHg 47%
    05:00 +20°C° 0 mm 2 mps 681 mmHg 49%
    06:00 +21°C° 0 mm 2 mps 681 mmHg 48%
    07:00 +23°C° 0 mm 2 mps 682 mmHg 47%
    08:00 +24°C° 0 mm 2 mps 682 mmHg 45%
    09:00 +26°C° 0 mm 3 mps 683 mmHg 39%
    10:00 +28°C° 0 mm 3 mps 683 mmHg 34%
    11:00 +32°C° 0 mm 4 mps 683 mmHg 28%
    12:00 +33°C° 0 mm 4 mps 682 mmHg 26%
    13:00 +34°C° 0 mm 3 mps 682 mmHg 24%
    14:00 +35°C° 0 mm 3 mps 681 mmHg 22%
    15:00 +34°C° 0 mm 3 mps 680 mmHg 22%
    16:00 +33°C° 0 mm 3 mps 680 mmHg 23%
    17:00 +33°C° 0 mm 3 mps 680 mmHg 24%
    18:00 +30°C° 0 mm 3 mps 680 mmHg 27%
    19:00 +29°C° 0 mm 3 mps 680 mmHg 29%
    20:00 +27°C° 0 mm 3 mps 680 mmHg 32%
    21:00 +26°C° 0 mm 3 mps 681 mmHg 34%
    22:00 +26°C° 0 mm 3 mps 681 mmHg 35%
    23:00 +25°C° 0 mm 4 mps 681 mmHg 37%

    22 April, Monday

    Time Temperature Precipitation Wind Pressure Humidity
    00:00 +25°C° 0 mm 4 mps 681 mmHg 40%
    01:00 +23°C° 0 mm 4 mps 681 mmHg 44%
    02:00 +22°C° 0 mm 4 mps 681 mmHg 47%
    03:00 +22°C° 0 mm 4 mps 681 mmHg 51%
    04:00 +21°C° 0 mm 4 mps 681 mmHg 55%
    05:00 +20°C° 0 mm 4 mps 681 mmHg 60%
    06:00 +21°C° 0 mm 5 mps 681 mmHg 63%
    07:00 +21°C° 0 mm 5 mps 681 mmHg 65%
    08:00 +21°C° 0 mm 6 mps 682 mmHg 68%
    09:00 +22°C° 0 mm 7 mps 682 mmHg 66%
    10:00 +22°C° 0 mm 7 mps 682 mmHg 63%
    11:00 +23°C° 0 mm 7 mps 682 mmHg 60%
    12:00 +24°C° 0 mm 7 mps 682 mmHg 55%
    13:00 +27°C° 0 mm 7 mps 682 mmHg 50%
    14:00 +28°C° 0 mm 7 mps 681 mmHg 45%
    15:00 +27°C° 0 mm 7 mps 681 mmHg 46%
    16:00 +27°C° 0 mm 6 mps 681 mmHg 47%
    17:00 +26°C° 0 mm 6 mps 681 mmHg 48%
    18:00 +24°C° 0 mm 6 mps 681 mmHg 51%
    19:00 +23°C° 0 mm 6 mps 681 mmHg 55%
    20:00 +22°C° 0 mm 6 mps 681 mmHg 59%
    21:00 +22°C° 0 mm 7 mps 681 mmHg 59%
    22:00 +22°C° 0 mm 7 mps 682 mmHg 58%
    23:00 +22°C° 0 mm 7 mps 682 mmHg 58%

    23 April, Tuesday

    Time Temperature Precipitation Wind Pressure Humidity
    00:00 +21°C° 0 mm 8 mps 682 mmHg 61%
    01:00 +20°C° 0 mm 8 mps 681 mmHg 64%
    02:00 +18°C° 0 mm 8 mps 681 mmHg 66%
    03:00 +18°C° 0 mm 8 mps 681 mmHg 68%
    04:00 +17°C° 0 mm 8 mps 682 mmHg 69%
    05:00 +17°C° 0 mm 8 mps 682 mmHg 71%
    06:00 +17°C° 0.1 mm 8 mps 682 mmHg 70%
    07:00 +17°C° 0.1 mm 8 mps 683 mmHg 69%
    08:00 +18°C° 0.1 mm 8 mps 683 mmHg 68%
    09:00 +20°C° 0.1 mm 7 mps 684 mmHg 64%
    10:00 +21°C° 0.1 mm 7 mps 684 mmHg 59%
    11:00 +22°C° 0.1 mm 6 mps 685 mmHg 55%
    12:00 +21°C° 2 mm 5 mps 684 mmHg 61%
    13:00 +21°C° 2 mm 4 mps 683 mmHg 68%
    14:00 +20°C° 2 mm 3 mps 683 mmHg 74%
    15:00 +20°C° 0.9 mm 3 mps 682 mmHg 77%
    16:00 +19°C° 0.9 mm 2 mps 682 mmHg 80%
    17:00 +19°C° 0.9 mm 2 mps 682 mmHg 83%
    18:00 +19°C° 0 mm 2 mps 682 mmHg 84%
    19:00 +19°C° 0 mm 3 mps 682 mmHg 85%
    20:00 +18°C° 0 mm 3 mps 683 mmHg 87%
    21:00 +18°C° 0 mm 3 mps 683 mmHg 85%
    22:00 +18°C° 0 mm 3 mps 683 mmHg 83%
    23:00 +18°C° 0 mm 4 mps 683 mmHg 80%
    Show more